Weather History for Gadsden, AL

Change the Weather History Date:

Monday, March 7, 2011

  Actual Average Record
Temperature  
Mean Temperature 42 °F -  
Max Temperature 48 °F 59 °F 79 °F (1934)
Min Temperature 37 °F 36 °F 23 °F (1932)
Degree Days  
Heating Degree Days 22    
Moisture  
Dew Point 32 °F    
Average Humidity 70    
Maximum Humidity 87    
Minimum Humidity 58    
Precipitation  
Precipitation 0.00 in - - ()
Sea Level Pressure  
Sea Level Pressure 30.14 in    
Wind  
Wind Speed 6 mph (NE)    
Max Wind Speed 12 mph    
Max Gust Speed -    
Visibility 10 miles    
Events      
Averages and records for this station are not official NWS values.
T = Trace of Precipitation, MM = Missing Value Source: NWS Daily Summary

Daily Weather History Graph

Daily Weather History Graph

Search for Another Location

Airport:

Trip Planner

Search our weather history database for the weather conditions in past years. The results will help you decide how hot, cold, wet, or windy it might be!

Date:

Astronomy

Mar. 07, 2011 Rise Set
Actual Time 6:05 AM CST 5:45 PM CST
Civil Twilight 5:40 AM CST 6:10 PM CST
Nautical Twilight 5:11 AM CST 6:39 PM CST
Astronomical Twilight 4:42 AM CST 7:08 PM CST
Moon 7:05 AM CST (3/7) 8:33 PM CST (3/7)
Length of Visible Light 12h 29m
Length of Day
11h 39m
Waxing Crescent, 7% of the Moon is Illuminated
Mar 7
Waxing Crescent
Mar 12
First Quarter
Mar 19
Full
Mar 26
Last Quarter
Apr 3
New

Hourly Weather History & Observations

Time (CST) Temp. Windchill Dew Point Humidity Pressure Visibility Wind Dir Wind Speed Gust Speed Precip Events Conditions
12:15 AM 37.4 °F 32.8 °F 30.2 °F 75% 30.13 in 10.0 mi North 5.8 mph - N/A   Overcast
12:35 AM 37.4 °F 32.1 °F 30.2 °F 75% 30.12 in 10.0 mi NNE 6.9 mph - N/A   Overcast
12:55 AM 37.4 °F 32.1 °F 30.2 °F 75% 30.12 in 10.0 mi NNE 6.9 mph - N/A   Overcast
1:15 AM 37.4 °F 32.1 °F 30.2 °F 75% 30.11 in 10.0 mi NNE 6.9 mph - N/A   Overcast
1:35 AM 37.4 °F 32.8 °F 30.2 °F 75% 30.11 in 10.0 mi NNE 5.8 mph - N/A   Overcast
1:55 AM 37.4 °F 29.8 °F 30.2 °F 75% 30.11 in 10.0 mi NNE 11.5 mph - N/A   Overcast
2:15 AM 37.4 °F 32.1 °F 30.2 °F 75% 30.11 in 10.0 mi NNE 6.9 mph - N/A   Overcast
2:35 AM 37.4 °F 30.8 °F 30.2 °F 75% 30.11 in 10.0 mi NNE 9.2 mph - N/A   Overcast
2:55 AM 37.4 °F 30.8 °F 30.2 °F 75% 30.11 in 10.0 mi North 9.2 mph - N/A   Overcast
3:35 AM 37.4 °F 30.3 °F 30.2 °F 75% 30.12 in 10.0 mi NE 10.4 mph - N/A   Overcast
4:15 AM 37.4 °F 32.1 °F 30.2 °F 75% 30.12 in 10.0 mi NNE 6.9 mph - N/A   Overcast
4:35 AM 37.4 °F 30.8 °F 30.2 °F 75% 30.13 in 10.0 mi ENE 9.2 mph - N/A   Overcast
4:55 AM 37.4 °F 32.1 °F 28.4 °F 70% 30.13 in 10.0 mi NE 6.9 mph - N/A   Overcast
5:15 AM 37.4 °F 30.3 °F 30.2 °F 75% 30.13 in 10.0 mi NE 10.4 mph - N/A   Overcast
5:55 AM 37.4 °F 32.1 °F 28.4 °F 70% 30.13 in 10.0 mi NE 6.9 mph - N/A   Overcast
6:15 AM 37.4 °F 32.8 °F 30.2 °F 75% 30.13 in 10.0 mi NE 5.8 mph - N/A   Overcast
6:35 AM 37.4 °F 33.8 °F 28.4 °F 70% 30.14 in 10.0 mi NE 4.6 mph - N/A   Overcast
6:55 AM 37.4 °F 31.4 °F 30.2 °F 75% 30.14 in 10.0 mi ENE 8.1 mph - N/A   Overcast
7:15 AM 37.4 °F 32.1 °F 30.2 °F 75% 30.14 in 10.0 mi NE 6.9 mph - N/A   Overcast
7:35 AM 39.2 °F 34.2 °F 30.2 °F 70% 30.16 in 10.0 mi NE 6.9 mph - N/A   Mostly Cloudy
7:55 AM 39.2 °F 34.2 °F 30.2 °F 70% 30.16 in 10.0 mi ENE 6.9 mph - N/A   Overcast
8:15 AM 39.2 °F 35.0 °F 30.2 °F 70% 30.18 in 10.0 mi ENE 5.8 mph - N/A   Overcast
8:35 AM 39.2 °F 35.0 °F 30.2 °F 70% 30.18 in 10.0 mi ENE 5.8 mph - N/A   Overcast
8:55 AM 39.2 °F 35.0 °F 30.2 °F 70% 30.18 in 10.0 mi NE 5.8 mph - N/A   Scattered Clouds
9:15 AM 41.0 °F 36.4 °F 30.2 °F 65% 30.18 in 10.0 mi East 6.9 mph - N/A   Partly Cloudy
9:35 AM 42.8 °F 38.6 °F 30.2 °F 61% 30.18 in 10.0 mi NE 6.9 mph - N/A   Partly Cloudy
9:55 AM 41.0 °F 37.1 °F 30.2 °F 65% 30.18 in 10.0 mi East 5.8 mph - N/A   Partly Cloudy
10:15 AM 42.8 °F 39.3 °F 32.0 °F 66% 30.17 in 10.0 mi ENE 5.8 mph - N/A   Clear
10:35 AM 42.8 °F - 30.2 °F 61% 30.18 in 10.0 mi Calm Calm - N/A   Clear
10:55 AM 42.8 °F 39.3 °F 30.2 °F 61% 30.17 in 10.0 mi ENE 5.8 mph - N/A   Clear
11:15 AM 44.6 °F 40.2 °F 33.8 °F 66% 30.16 in 10.0 mi East 8.1 mph - N/A   Clear
11:35 AM 44.6 °F 41.4 °F 32.0 °F 61% 30.16 in 10.0 mi ENE 5.8 mph - N/A   Clear
11:55 AM 44.6 °F 40.7 °F 32.0 °F 61% 30.16 in 10.0 mi East 6.9 mph - N/A   Clear
12:15 PM 44.6 °F 40.7 °F 33.8 °F 66% 30.16 in 10.0 mi ENE 6.9 mph - N/A   Clear
12:35 PM 44.6 °F 43.1 °F 33.8 °F 66% 30.15 in 10.0 mi NNE 3.5 mph - N/A   Clear
12:55 PM 46.4 °F 43.5 °F 33.8 °F 62% 30.15 in 10.0 mi ENE 5.8 mph - N/A   Clear
1:15 PM 46.4 °F 42.4 °F 33.8 °F 62% 30.13 in 10.0 mi East 8.1 mph - N/A   Clear
1:35 PM 46.4 °F 41.9 °F 35.6 °F 66% 30.12 in 10.0 mi ENE 9.2 mph - N/A   Clear
1:55 PM 46.4 °F 41.9 °F 33.8 °F 62% 30.12 in 10.0 mi ENE 9.2 mph - N/A   Clear
2:35 PM 48.2 °F - 35.6 °F 62% 30.12 in 10.0 mi East 8.1 mph - N/A   Clear
2:55 PM 48.2 °F - 33.8 °F 58% 30.12 in 10.0 mi ENE 9.2 mph - N/A   Clear
3:15 PM 48.2 °F - 35.6 °F 62% 30.12 in 10.0 mi East 4.6 mph - N/A   Clear
3:35 PM 48.2 °F - 35.6 °F 62% 30.12 in 10.0 mi ENE 6.9 mph - N/A   Clear
3:55 PM 48.2 °F - 35.6 °F 62% 30.11 in 10.0 mi East 8.1 mph - N/A   Clear
4:15 PM 48.2 °F - 35.6 °F 62% 30.11 in 10.0 mi East 8.1 mph - N/A   Clear
4:35 PM 48.2 °F - 35.6 °F 62% 30.11 in 10.0 mi East 6.9 mph - N/A   Clear
4:55 PM 48.2 °F - 37.4 °F 66% 30.11 in 10.0 mi NE 5.8 mph - N/A   Clear
5:15 PM 48.2 °F - 35.6 °F 62% 30.12 in 10.0 mi NE 4.6 mph - N/A   Clear
5:35 PM 46.4 °F 44.3 °F 35.6 °F 66% 30.12 in 10.0 mi NE 4.6 mph - N/A   Clear
5:55 PM 46.4 °F 44.3 °F 35.6 °F 66% 30.12 in 10.0 mi NE 4.6 mph - N/A   Clear
6:15 PM 44.6 °F 43.1 °F 35.6 °F 71% 30.12 in 10.0 mi ENE 3.5 mph - N/A   Clear
6:35 PM 42.8 °F - 35.6 °F 76% 30.12 in 10.0 mi Calm Calm - N/A   Clear
6:55 PM 42.8 °F - 35.6 °F 76% 30.12 in 10.0 mi Calm Calm - N/A   Clear
7:15 PM 42.8 °F - 35.6 °F 76% 30.12 in 10.0 mi Calm Calm - N/A   Clear
7:35 PM 41.0 °F - 33.8 °F 76% 30.13 in 10.0 mi Calm Calm - N/A   Clear
7:55 PM 39.2 °F - 35.6 °F 87% 30.13 in 10.0 mi Calm Calm - N/A   Clear
8:15 PM 39.2 °F - 33.8 °F 81% 30.14 in 10.0 mi Calm Calm - N/A   Clear
8:35 PM 37.4 °F - 33.8 °F 87% 30.14 in 10.0 mi Calm Calm - N/A   Clear
8:55 PM 37.4 °F - 33.8 °F 87% 30.14 in 10.0 mi Calm Calm - N/A   Clear
9:15 PM 37.4 °F - 33.8 °F 87% 30.14 in 10.0 mi Calm Calm - N/A   Clear
9:35 PM 39.2 °F - 33.8 °F 81% 30.15 in 10.0 mi Calm Calm - N/A   Clear
9:55 PM 39.2 °F - 35.6 °F 87% 30.15 in 10.0 mi Calm Calm - N/A   Clear
10:15 PM 39.2 °F - 35.6 °F 87% 30.14 in 10.0 mi Calm Calm - N/A   Clear
10:35 PM 41.0 °F - 35.6 °F 81% 30.14 in 10.0 mi Calm Calm - N/A   Clear
10:55 PM 41.0 °F 39.0 °F 35.6 °F 81% 30.15 in 10.0 mi ENE 3.5 mph - N/A   Clear
11:15 PM 41.0 °F - 35.6 °F 81% 30.15 in 10.0 mi Calm Calm - N/A   Clear
11:35 PM 42.8 °F 41.1 °F 35.6 °F 76% 30.15 in 10.0 mi ENE 3.5 mph - N/A   Clear
11:55 PM 42.8 °F 41.1 °F 35.6 °F 76% 30.14 in 10.0 mi East 3.5 mph - N/A   Clear